Stündliche Wetter Kyundyade

Heute, 14 Mai, Freitag

Zeit Temperatur Niederschläge Wind Luftdruck Luftfeuchtigkeit
00:00 +6°C° 0 mm 1 m/S 748 mmHg 52%
01:00 +5°C° 0 mm 1 m/S 748 mmHg 55%
02:00 +5°C° 0 mm 1 m/S 748 mmHg 58%
03:00 +5°C° 0 mm 1 m/S 748 mmHg 59%
04:00 +5°C° 0 mm 1 m/S 748 mmHg 59%
05:00 +6°C° 0 mm 1 m/S 748 mmHg 59%
06:00 +7°C° 0 mm 2 m/S 748 mmHg 52%
07:00 +9°C° 0 mm 2 m/S 748 mmHg 46%
08:00 +12°C° 0 mm 2 m/S 748 mmHg 39%
09:00 +13°C° 0 mm 2 m/S 748 mmHg 35%
10:00 +14°C° 0 mm 2 m/S 747 mmHg 31%
11:00 +14°C° 0 mm 3 m/S 747 mmHg 28%
12:00 +16°C° 0 mm 3 m/S 747 mmHg 26%
13:00 +16°C° 0 mm 3 m/S 746 mmHg 25%
14:00 +16°C° 0 mm 3 m/S 746 mmHg 24%
15:00 +17°C° 0 mm 3 m/S 746 mmHg 24%
16:00 +17°C° 0 mm 3 m/S 745 mmHg 24%
17:00 +17°C° 0 mm 3 m/S 745 mmHg 24%
18:00 +15°C° 0 mm 2 m/S 745 mmHg 29%
19:00 +14°C° 0 mm 2 m/S 745 mmHg 35%
20:00 +12°C° 0 mm 2 m/S 745 mmHg 40%
21:00 +10°C° 0 mm 2 m/S 745 mmHg 43%
22:00 +9°C° 0 mm 2 m/S 745 mmHg 46%
23:00 +7°C° 0 mm 2 m/S 745 mmHg 49%

Morgen, 15 Mai, Samstag

Zeit Temperatur Niederschläge Wind Luftdruck Luftfeuchtigkeit
00:00 +7°C° 0 mm 2 m/S 744 mmHg 52%
01:00 +6°C° 0 mm 2 m/S 744 mmHg 54%
02:00 +6°C° 0 mm 2 m/S 744 mmHg 57%
03:00 +6°C° 0 mm 2 m/S 744 mmHg 56%
04:00 +6°C° 0 mm 2 m/S 743 mmHg 56%
05:00 +6°C° 0 mm 2 m/S 743 mmHg 56%
06:00 +8°C° 0 mm 2 m/S 743 mmHg 50%
07:00 +10°C° 0 mm 3 m/S 742 mmHg 44%
08:00 +12°C° 0 mm 3 m/S 742 mmHg 38%
09:00 +13°C° 0 mm 4 m/S 742 mmHg 34%
10:00 +15°C° 0 mm 4 m/S 741 mmHg 30%
11:00 +17°C° 0 mm 4 m/S 740 mmHg 25%
12:00 +18°C° 0 mm 4 m/S 740 mmHg 24%
13:00 +18°C° 0 mm 4 m/S 739 mmHg 22%
14:00 +19°C° 0 mm 4 m/S 738 mmHg 21%
15:00 +19°C° 0 mm 4 m/S 738 mmHg 22%
16:00 +18°C° 0 mm 4 m/S 737 mmHg 24%
17:00 +18°C° 0 mm 3 m/S 737 mmHg 25%
18:00 +17°C° 0 mm 3 m/S 736 mmHg 29%
19:00 +16°C° 0 mm 3 m/S 736 mmHg 34%
20:00 +13°C° 0 mm 3 m/S 735 mmHg 38%
21:00 +12°C° 0 mm 3 m/S 735 mmHg 44%
22:00 +11°C° 0 mm 4 m/S 735 mmHg 51%
23:00 +10°C° 0 mm 4 m/S 734 mmHg 57%

übermorgen, 16 Mai, Sonntag

Zeit Temperatur Niederschläge Wind Luftdruck Luftfeuchtigkeit
00:00 +7°C° 0.3 mm 4 m/S 734 mmHg 67%
01:00 +6°C° 0.3 mm 4 m/S 734 mmHg 77%
02:00 +5°C° 0.3 mm 4 m/S 734 mmHg 87%
03:00 +5°C° 0.2 mm 3 m/S 735 mmHg 85%
04:00 +4°C° 0.2 mm 3 m/S 735 mmHg 84%
05:00 +4°C° 0.2 mm 3 m/S 735 mmHg 83%
06:00 +5°C° 0 mm 3 m/S 735 mmHg 74%
07:00 +7°C° 0 mm 3 m/S 735 mmHg 65%
08:00 +8°C° 0 mm 3 m/S 735 mmHg 56%
09:00 +9°C° 0.1 mm 3 m/S 734 mmHg 52%
10:00 +9°C° 0.1 mm 3 m/S 734 mmHg 47%
11:00 +10°C° 0.1 mm 4 m/S 734 mmHg 42%
12:00 +10°C° 0.1 mm 3 m/S 734 mmHg 44%
13:00 +10°C° 0.1 mm 3 m/S 734 mmHg 46%
14:00 +10°C° 0.1 mm 3 m/S 734 mmHg 47%
15:00 +10°C° 0.1 mm 3 m/S 735 mmHg 50%
16:00 +9°C° 0.1 mm 2 m/S 735 mmHg 54%
17:00 +10°C° 0.1 mm 1 m/S 735 mmHg 57%
18:00 +8°C° 0 mm 2 m/S 735 mmHg 57%
19:00 +8°C° 0 mm 2 m/S 735 mmHg 58%
20:00 +7°C° 0 mm 3 m/S 735 mmHg 58%
21:00 +5°C° 0.4 mm 3 m/S 736 mmHg 64%
22:00 +3°C° 0.4 mm 4 m/S 736 mmHg 69%
23:00 0°C° 0.4 mm 5 m/S 736 mmHg 74%

17 Mai, Montag

Zeit Temperatur Niederschläge Wind Luftdruck Luftfeuchtigkeit
00:00 -1°C° 0.8 mm 4 m/S 737 mmHg 76%
01:00 -2°C° 0.8 mm 4 m/S 737 mmHg 79%
02:00 -2°C° 0.8 mm 3 m/S 737 mmHg 81%
03:00 -2°C° 0.4 mm 3 m/S 738 mmHg 76%
04:00 -4°C° 0.4 mm 3 m/S 738 mmHg 71%
05:00 -4°C° 0.4 mm 3 m/S 738 mmHg 66%
06:00 -3°C° 0 mm 4 m/S 738 mmHg 61%
07:00 -3°C° 0 mm 4 m/S 738 mmHg 55%
08:00 -2°C° 0 mm 4 m/S 739 mmHg 50%
09:00 -1°C° 0 mm 4 m/S 739 mmHg 47%
10:00 0°C° 0 mm 4 m/S 739 mmHg 44%
11:00 0°C° 0 mm 4 m/S 739 mmHg 42%
12:00 +1°C° 0 mm 4 m/S 739 mmHg 41%
13:00 +1°C° 0 mm 4 m/S 739 mmHg 41%
14:00 +3°C° 0 mm 4 m/S 739 mmHg 40%
15:00 +3°C° 0 mm 4 m/S 739 mmHg 40%
16:00 +3°C° 0 mm 4 m/S 739 mmHg 40%
17:00 +3°C° 0 mm 3 m/S 739 mmHg 39%
18:00 +2°C° 0 mm 3 m/S 739 mmHg 43%
19:00 +3°C° 0 mm 2 m/S 739 mmHg 46%
20:00 +2°C° 0 mm 2 m/S 739 mmHg 49%
21:00 -1°C° 0 mm 2 m/S 739 mmHg 55%
22:00 -2°C° 0 mm 2 m/S 739 mmHg 60%
23:00 -2°C° 0 mm 1 m/S 739 mmHg 65%

18 Mai, Dienstag

Zeit Temperatur Niederschläge Wind Luftdruck Luftfeuchtigkeit
00:00 -2°C° 0 mm 1 m/S 739 mmHg 67%
01:00 -3°C° 0 mm 1 m/S 739 mmHg 68%
02:00 -3°C° 0 mm 1 m/S 739 mmHg 70%
03:00 -2°C° 0 mm 1 m/S 739 mmHg 66%
04:00 -2°C° 0 mm 1 m/S 739 mmHg 62%
05:00 -1°C° 0 mm 1 m/S 740 mmHg 58%
06:00 +1°C° 0 mm 1 m/S 740 mmHg 51%
07:00 +1°C° 0 mm 2 m/S 740 mmHg 43%
08:00 +3°C° 0 mm 2 m/S 740 mmHg 36%
09:00 +3°C° 0 mm 2 m/S 740 mmHg 33%
10:00 +4°C° 0 mm 2 m/S 740 mmHg 31%
11:00 +5°C° 0 mm 2 m/S 740 mmHg 29%
12:00 +5°C° 0 mm 2 m/S 740 mmHg 27%
13:00 +6°C° 0 mm 2 m/S 740 mmHg 26%
14:00 +6°C° 0 mm 2 m/S 740 mmHg 24%
15:00 +6°C° 0 mm 2 m/S 740 mmHg 24%
16:00 +6°C° 0 mm 2 m/S 740 mmHg 24%
17:00 +6°C° 0 mm 2 m/S 740 mmHg 24%
18:00 +6°C° 0 mm 1 m/S 740 mmHg 29%
19:00 +5°C° 0 mm 1 m/S 740 mmHg 33%
20:00 +4°C° 0 mm 1 m/S 741 mmHg 38%
21:00 +3°C° 0 mm 1 m/S 741 mmHg 43%
22:00 +1°C° 0 mm 1 m/S 741 mmHg 47%
23:00 0°C° 0 mm 1 m/S 741 mmHg 51%

19 Mai, Mittwoch

Zeit Temperatur Niederschläge Wind Luftdruck Luftfeuchtigkeit
00:00 -1°C° 0 mm 1 m/S 741 mmHg 54%
01:00 -1°C° 0 mm 1 m/S 741 mmHg 56%
02:00 -2°C° 0 mm 1 m/S 741 mmHg 58%
03:00 -1°C° 0 mm 1 m/S 741 mmHg 55%
04:00 0°C° 0 mm 1 m/S 742 mmHg 52%
05:00 0°C° 0 mm 1 m/S 742 mmHg 49%
06:00 +2°C° 0 mm 1 m/S 742 mmHg 44%
07:00 +3°C° 0 mm 2 m/S 742 mmHg 38%
08:00 +5°C° 0 mm 2 m/S 742 mmHg 33%
09:00 +5°C° 0 mm 3 m/S 742 mmHg 30%
10:00 +7°C° 0 mm 3 m/S 742 mmHg 27%
11:00 +9°C° 0 mm 3 m/S 742 mmHg 24%
12:00 +9°C° 0 mm 3 m/S 742 mmHg 24%
13:00 +8°C° 0 mm 4 m/S 742 mmHg 24%
14:00 +10°C° 0 mm 4 m/S 742 mmHg 23%
15:00 +10°C° 0 mm 4 m/S 742 mmHg 24%
16:00 +10°C° 0 mm 4 m/S 742 mmHg 25%
17:00 +8°C° 0 mm 4 m/S 742 mmHg 26%
18:00 +8°C° 0 mm 3 m/S 742 mmHg 30%
19:00 +7°C° 0 mm 3 m/S 742 mmHg 34%
20:00 +5°C° 0 mm 3 m/S 743 mmHg 37%
21:00 +4°C° 0 mm 3 m/S 743 mmHg 42%
22:00 +3°C° 0 mm 3 m/S 743 mmHg 46%
23:00 +2°C° 0 mm 2 m/S 744 mmHg 50%
Mehr zeigen

Wir brauchen deine Erlaubnis

Meteoprog und unser Service Anbieter werden persönliche Daten aufbewahren, so wie Cookies, Geräte Bezeichnung oder ähnliche Technologien von deinem Gerät und Prozess, so wie Persönliche Daten Inhalte und Werbungen, genauso wie social Media und den Verkehr zu analysieren.

  • Aufbewahrung und/oder Zugang zu deiner Geräte Informationen.

    Cookies, Geräte Bezeichnung oder andere Informationen, können aufbewahrt oder Zugang zu deinem Gerät erhalten, für den Grund, der oben angegeben wird.

  • Personalisierte Werbung und Inhalte, Messungen, Einblick in das Publikum und Produkt Entwicklung.

    Werbungen und Inhalte können personalisiert werden, basierend auf ein Profil. Mehr Daten können besser personalisierte Werbungen und Inhalte hinzufügen. Werbung und Inhalte können gezeigt und gemessen werden. Einblicke über das Publikum, welche die Werbung gesehen haben und den Inhalt, können abgeleitet werden. So wie Daten können genutzt werden, um es zu verbessern oder die Benutzer Erfahrung zu verbessern das System und die Software.

Wenn du “Ich stimme zu” klickst, erlaubst du uns, die Cookies zu benutzen die Geräte Bezeichnung, den Web oder ähnliche Technologien zu benutzen. Deine Settings, können in deinem Gerät bei deinem Browser geändert werden.

Für den bestimmten Zweck, berechtigten Interessen beruhen darauf, mehr als auf den Inhalt. Du kannst mehr darüber in unseren Privaten und Cookie Politik lesen.